Weather History for KOSU - January, 2013

Change the Weather History Date:

Monday, January 14, 2013

  Actual Average Record
Temperature  
Mean Temperature 30 °F -  
Max Temperature 37 °F 32 °F 51 °F (2002)
Min Temperature 24 °F 18 °F 3 °F (1997)
Degree Days  
Heating Degree Days 34    
Moisture  
Dew Point 24 °F    
Average Humidity 82    
Maximum Humidity 93    
Minimum Humidity 74    
Precipitation  
Precipitation 0.00 in - - ()
Sea Level Pressure  
Sea Level Pressure 30.30 in    
Wind  
Wind Speed 9 mph (NNW)    
Max Wind Speed 17 mph    
Max Gust Speed 21 mph    
Visibility 10 miles    
Events      
Averages and records for this station are not official NWS values.
T = Trace of Precipitation, MM = Missing Value Source: NWS Daily Summary

Daily Weather History Graph

Daily Weather History Graph

Search for Another Location

Airport or City:

Trip Planner

Search our weather history database for the weather conditions in past years. The results will help you decide how hot, cold, wet, or windy it might be!

Date:

Astronomy

Jan. 14, 2013 Rise Set
Actual Time 7:52 AM EST 5:30 PM EST
Civil Twilight 7:22 AM EST 6:00 PM EST
Nautical Twilight 6:49 AM EST 6:33 PM EST
Astronomical Twilight 6:16 AM EST 7:06 PM EST
Moon 9:25 AM EST (1/14) 9:14 PM EST (1/14)
Length of Visible Light 10h 37m
Length of Day
9h 37m
Waxing Crescent, 11% of the Moon is Illuminated
Jan 14
Waxing Crescent
Jan 18
First Quarter
Jan 26
Full
Feb 3
Last Quarter
Feb 10
New

Hourly Weather History & Observations

Time (EST) Temp. Windchill Dew Point Humidity Pressure Visibility Wind Dir Wind Speed Gust Speed Precip Events Conditions
12:01 AM 37.4 °F 31.4 °F 35.6 °F 93% 30.07 in 10.0 mi NW 8.1 mph - N/A   Overcast
12:24 AM 37.4 °F 30.3 °F 35.6 °F 93% 30.08 in 10.0 mi NW 10.4 mph 16.1 mph N/A   Overcast
12:53 AM 37.9 °F 30.0 °F 34.0 °F 86% 30.09 in 10.0 mi WNW 12.7 mph - N/A   Overcast
1:16 AM 37.4 °F 29.8 °F 33.8 °F 87% 30.10 in 10.0 mi WNW 11.5 mph - N/A   Overcast
1:53 AM 36.0 °F 28.5 °F 33.1 °F 89% 30.13 in 10.0 mi WNW 10.4 mph - N/A   Overcast
2:53 AM 34.0 °F 23.4 °F 30.9 °F 89% 30.19 in 10.0 mi West 17.3 mph 20.7 mph N/A   Overcast
3:30 AM 32.0 °F 22.5 °F 28.4 °F 87% 30.19 in 9.0 mi West 12.7 mph - N/A   Overcast
3:53 AM 30.9 °F 21.7 °F 27.0 °F 85% 30.21 in 8.0 mi West 11.5 mph - N/A   Overcast
4:53 AM 30.0 °F 20.5 °F 26.1 °F 85% 30.23 in 10.0 mi WNW 11.5 mph - N/A   Overcast
5:53 AM 27.0 °F 17.3 °F 23.0 °F 85% 30.26 in 10.0 mi NW 10.4 mph - N/A   Mostly Cloudy
6:53 AM 26.1 °F 17.6 °F 21.9 °F 84% 30.30 in 10.0 mi NW 8.1 mph - N/A   Overcast
7:53 AM 26.1 °F 16.8 °F 21.9 °F 84% 30.34 in 10.0 mi NW 9.2 mph - N/A   Overcast
8:53 AM 26.1 °F 21.9 °F 21.0 °F 81% 30.40 in 9.0 mi North 3.5 mph - N/A   Overcast
9:16 AM 26.6 °F 22.6 °F 19.4 °F 74% 30.37 in 10.0 mi WNW 3.5 mph - N/A   Overcast
9:53 AM 27.0 °F 23.0 °F 21.9 °F 81% 30.40 in 10.0 mi NNW 3.5 mph - N/A   Overcast
10:53 AM 27.0 °F 18.0 °F 21.0 °F 78% 30.41 in 10.0 mi NNW 9.2 mph - N/A   Overcast
11:53 AM 27.0 °F 19.5 °F 21.0 °F 78% 30.38 in 10.0 mi NNW 6.9 mph - N/A   Overcast
12:53 PM 28.9 °F 21.1 °F 21.9 °F 75% 30.31 in 10.0 mi North 8.1 mph - N/A   Mostly Cloudy
1:53 PM 28.9 °F 21.1 °F 21.9 °F 75% 30.34 in 10.0 mi North 8.1 mph - N/A   Overcast
2:53 PM 28.0 °F 18.1 °F 21.0 °F 75% 30.35 in 10.0 mi North 11.5 mph - N/A   Overcast
3:53 PM 28.0 °F 18.6 °F 21.0 °F 75% 30.38 in 10.0 mi NNW 10.4 mph - N/A   Mostly Cloudy
5:53 PM 27.0 °F 19.5 °F 21.0 °F 78% 30.42 in 9.0 mi North 6.9 mph - N/A   Mostly Cloudy
6:53 PM 26.1 °F 18.4 °F 19.9 °F 78% 30.41 in 10.0 mi North 6.9 mph - N/A   Mostly Cloudy
7:00 PM 26.6 °F 18.2 °F 19.4 °F 74% 30.38 in 10.0 mi North 8.1 mph - N/A   Scattered Clouds
7:53 PM 26.1 °F 18.4 °F 19.9 °F 78% 30.41 in 10.0 mi NNE 6.9 mph - N/A   Overcast
8:53 PM 26.1 °F 21.9 °F 21.0 °F 81% 30.40 in 10.0 mi NE 3.5 mph - N/A   Overcast
9:53 PM 24.1 °F 18.2 °F 19.9 °F 84% 30.37 in 10.0 mi North 4.6 mph - N/A   Clear
10:53 PM 24.1 °F 18.2 °F 19.9 °F 84% 30.36 in 10.0 mi North 4.6 mph - N/A   Clear
11:53 PM 24.1 °F 17.0 °F 19.9 °F 84% 30.37 in 10.0 mi NNW 5.8 mph - N/A   Clear